Weather History for Owen Roberts, Cayman Islands

Change the Weather History Date:

Sunday, February 16, 2014

  Actual Average Record
Temperature  
Mean Temperature 80 °F -  
Max Temperature 84 °F 82 °F 86 °F (1998)
Min Temperature 77 °F 74 °F 70 °F (2013)
Cooling Degree Days 16    
Growing Degree Days 30 (Base 50)    
Moisture  
Dew Point 70 °F    
Average Humidity 72    
Maximum Humidity 78    
Minimum Humidity 60    
Precipitation  
Precipitation 0.00 in - - ()
Sea Level Pressure  
Sea Level Pressure 30.06 in    
Wind  
Wind Speed 9 mph ()    
Max Wind Speed 18 mph    
Max Gust Speed -    
Visibility 6.2 miles    
Events      
Averages and records for this station are not official NWS values.
T = Trace of Precipitation, MM = Missing Value Source: Averaged Metar Reports

Daily Weather History Graph

Daily Weather History Graph

Search for Another Location

Airport:

Trip Planner

Search our weather history database for the weather conditions in past years. The results will help you decide how hot, cold, wet, or windy it might be!

Date:

Astronomy

Feb. 16, 2014 Rise Set
Actual Time 6:53 AM EST 6:25 PM EST
Civil Twilight 6:31 AM EST 6:48 PM EST
Nautical Twilight 6:05 AM EST 7:14 PM EST
Astronomical Twilight 5:39 AM EST 7:39 PM EST
Moon 7:59 PM EST (2/16) 7:41 AM EST (2/16)
Length of Visible Light 12h 17m
Length of Day
11h 32m
Full, 97% of the Moon is Illuminated
Feb 16
Full
Feb 22
Last Quarter
Mar 1
New
Mar 8
First Quarter
Mar 16
Full

Hourly Weather History & Observations

Time (EST) Temp. Heat Index Dew Point Humidity Pressure Visibility Wind Dir Wind Speed Gust Speed Precip Events Conditions
6:00 AM 78.8 °F - 69.8 °F 74% 30.04 in 6.2 mi NE 6.9 mph - N/A   Partly Cloudy
7:00 AM 78 °F - 67 °F 60% 30.07 in 6 mi NNE 8.1 mph - -   Scattered Clouds
7:00 AM 77.0 °F - 66.2 °F 69% 30.06 in 6.2 mi NNE 8.1 mph - N/A   Partly Cloudy
8:00 AM 78.8 °F - 68.0 °F 69% 30.06 in 6.2 mi NE 10.4 mph - N/A   Partly Cloudy
9:00 AM 78.8 °F - 69.8 °F 74% 30.09 in 6.2 mi NE 11.5 mph - N/A   Partly Cloudy
10:00 AM 80.6 °F 83.2 °F 68.0 °F 65% 30.09 in 6.2 mi NE 10.4 mph - N/A   Partly Cloudy
11:00 AM 82.4 °F 86.3 °F 69.8 °F 66% 30.09 in 6.2 mi ENE 11.5 mph - N/A   Partly Cloudy
12:00 PM 82.4 °F 86.3 °F 69.8 °F 66% 30.09 in 6.2 mi NE 11.5 mph - N/A   Partly Cloudy
1:00 PM 83 °F - 73 °F 64% 30.06 in 6 mi ENE 18.4 mph - -   Partly Cloudy
1:00 PM 82.4 °F 88.2 °F 73.4 °F 74% 30.06 in 6.2 mi ENE 12.7 mph - N/A   Partly Cloudy
2:00 PM 82.4 °F 88.2 °F 73.4 °F 74% 30.04 in 6.2 mi NE 15.0 mph - N/A   Partly Cloudy
3:00 PM 80.6 °F 84.6 °F 71.6 °F 74% 30.04 in 6.2 mi NE 13.8 mph - N/A   Scattered Clouds
4:00 PM 80.6 °F 84.6 °F 71.6 °F 74% 30.01 in 6.2 mi NE 13.8 mph - N/A   Scattered Clouds
5:00 PM 80.6 °F 84.6 °F 71.6 °F 74% 30.04 in 6.2 mi NE 13.8 mph - N/A   Partly Cloudy
6:00 PM 78.8 °F - 71.6 °F 78% 30.04 in 6.2 mi NE 11.5 mph - N/A   Partly Cloudy
7:00 PM 78 °F - 71 °F 74% 30.06 in 6 mi NE 11.5 mph - -   Partly Cloudy
7:00 PM 78.8 °F - 71.6 °F 78% 30.04 in 6.2 mi NE 11.5 mph - N/A   Scattered Clouds
8:00 PM 78.8 °F - 69.8 °F 74% 30.06 in 6.2 mi ENE 11.5 mph - N/A   Partly Cloudy
9:00 PM 78.8 °F - 69.8 °F 74% 30.06 in 6.2 mi NE 11.5 mph - N/A   Partly Cloudy
10:00 PM 77.0 °F - 69.8 °F 78% 30.09 in 6.2 mi NE 11.5 mph - N/A   Scattered Clouds